[TLELIST] Archives

 

Current TLEs

October 23rd 2007 PDT

HST 1 20580U 90037B 07294.86906286 +.00000352 +00000-0 +14488-4 0 00036 2 20580 028.4669 084.0069 0003256 007.0322 353.0312 15.00292051759002 ISS (ZARYA) 1 25544U 98067A 07296.15373810 .00015351 00000-0 10106-3 0 2159 2 25544 051.6378 163.9741 0002741 116.1813 026.1865 15.75895013510961 CXO 1 25867U 99040B 07297.20833333 .00000548 00000-0 10000-3 0 1263 2 25867 062.5698 086.4378 6423523 282.0515 355.4517 00.37809246 2731 ____________________________________________________________________ These 2-Line ...Continue Reading

Current TLEs

October 22nd 2007 PDT

HST 1 20580U 90037B 07294.86906286 .00000352 00000-0 14488-4 0 9877 2 20580 028.4669 084.0069 0003256 007.0322 353.0312 15.00292051759002 ISS (ZARYA) 1 25544U 98067A 07295.25929596 .00015694 00000-0 10334-3 0 2105 2 25544 051.6372 168.5803 0002994 110.2770 354.3473 15.75868586510823 CXO 1 25867U 99040B 07294.58333333 .00000540 00000-0 10000-3 0 1257 2 25867 062.5502 086.5055 6418576 282.0492 358.1853 00.37806654 2726 ____________________________________________________________________ These 2-Line ...Continue Reading

Current TLEs

October 21st 2007 PDT

HST 1 20580U 90037B 07293.80469499 .00000331 00000-0 12798-4 0 9868 2 20580 028.4668 090.9486 0003280 352.8590 007.1952 15.00291430758843 ISS (ZARYA) 1 25544U 98067A 07293.86312662 .00015294 00000-0 10102-3 0 2020 2 25544 051.6366 175.7711 0002969 106.4906 352.2446 15.75820989510602 CXO 1 25867U 99040B 07294.58333333 .00000540 00000-0 10000-3 0 1257 2 25867 062.5502 086.5055 6418576 282.0492 358.1853 00.37806654 2726 ____________________________________________________________________ These 2-Line ...Continue Reading

Current TLEs

October 20th 2007 PDT

HST 1 20580U 90037B 07292.60728157 .00000315 00000-0 11549-4 0 9858 2 20580 028.4667 098.7592 0003300 335.6111 024.4386 15.00290864758660 ISS (ZARYA) 1 25544U 98067A 07293.29317405 .00012691 00000-0 84645-4 0 1972 2 25544 051.6377 178.7012 0002971 109.4356 353.8130 15.75796545510513 CXO 1 25867U 99040B 07290.66666667 .00000449 00000-0 10000-3 0 1248 2 25867 062.5320 086.5849 6411320 282.0879 185.0084 00.37802703 2717 ____________________________________________________________________ These 2-Line ...Continue Reading

Current TLEs

October 19th 2007 PDT

HST 1 20580U 90037B 07290.87768244 .00000327 00000-0 12492-4 0 9846 2 20580 028.4667 110.0459 0003448 315.7857 044.2454 15.00290443758400 ISS (ZARYA) 1 25544U 98067A 07292.27783684 .00013847 00000-0 92064-4 0 1894 2 25544 051.6377 183.9298 0002884 106.7874 352.7515 15.75773025510350 CXO 1 25867U 99040B 07290.66666667 .00000449 00000-0 10000-3 0 1248 2 25867 062.5320 086.5849 6411320 282.0879 185.0084 00.37802703 2717 ____________________________________________________________________ These 2-Line ...Continue Reading

Current TLEs

October 18th 2007 PDT

HST 1 20580U 90037B 07290.87768244 .00000327 00000-0 12492-4 0 9846 2 20580 028.4667 110.0459 0003448 315.7857 044.2454 15.00290443758400 ISS (ZARYA) 1 25544U 98067A 07291.32747807 .00015287 00000-0 10129-3 0 1819 2 25544 051.6380 188.8234 0002940 104.9996 359.7826 15.75751495510209 CXO 1 25867U 99040B 07290.66666667 .00000449 00000-0 10000-3 0 1248 2 25867 062.5320 086.5849 6411320 282.0879 185.0084 00.37802703 2717 ____________________________________________________________________ These 2-Line ...Continue Reading

Current TLEs

October 17th 2007 PDT

HST 1 20580U 90037B 07289.81331381 .00000330 00000-0 12764-4 0 9831 2 20580 028.4667 116.9868 0003490 304.5434 055.4820 15.00290109758245 ISS (ZARYA) 1 25544U 98067A 07290.31185382 .00015399 00000-0 10213-3 0 1729 2 25544 051.6379 194.0516 0003111 102.4150 357.2007 15.75719924510042 CXO 1 25867U 99040B 07290.66666667 .00000449 00000-0 10000-3 0 1248 2 25867 062.5320 086.5849 6411320 282.0879 185.0084 00.37802703 2717 ____________________________________________________________________ These 2-Line ...Continue Reading

Current TLEs

October 16th 2007 PDT

HST 1 20580U 90037B 07287.81762186 +.00000326 +00000-0 +12444-4 0 09953 2 20580 028.4670 129.9975 0003542 281.4706 078.5480 15.00289461757948 ISS (ZARYA) 1 25544U 98067A 07289.36145954 .00014209 00000-0 94714-4 0 1664 2 25544 051.6376 198.9444 0003222 097.9424 006.8731 15.75684779509898 CXO 1 25867U 99040B 07288.04166667 .00000399 00000-0 10000-3 0 1235 2 25867 062.5215 086.6366 6406157 282.1308 187.6339 00.37805042 2704 ____________________________________________________________________ These 2-Line ...Continue Reading

Current TLEs

October 15th 2007 PDT

HST 1 20580U 90037B 07287.95066791 .00000339 00000-0 13434-4 0 9827 2 20580 028.4669 129.1292 0003492 282.8791 077.1409 15.00289613757960 ISS (ZARYA) 1 25544U 98067A 07288.34580058 .00013642 00000-0 91234-4 0 1607 2 25544 051.6370 204.1720 0003176 091.9023 007.7786 15.75652167509735 CXO 1 25867U 99040B 07288.04166667 .00000399 00000-0 10000-3 0 1235 2 25867 062.5215 086.6366 6406157 282.1308 187.6339 00.37805042 2704 ____________________________________________________________________ These 2-Line ...Continue Reading

Current TLEs

October 14th 2007 PDT

HST 1 20580U 90037B 07286.88629932 .00000331 00000-0 12779-4 0 9812 2 20580 028.4671 136.0710 0003604 271.1989 088.8190 15.00289208757809 ISS (ZARYA) 1 25544U 98067A 07287.33007102 .00012996 00000-0 87237-4 0 1530 2 25544 051.6368 209.3996 0003164 091.9873 002.2815 15.75621021509574 CXO 1 25867U 99040B 07288.04166667 .00000399 00000-0 10000-3 0 1235 2 25867 062.5215 086.6366 6406157 282.1308 187.6339 00.37805042 2704 ____________________________________________________________________ These 2-Line ...Continue Reading
  • This mailing list is a public mailing list - anyone may join or leave, at any time.
  • This mailing list is announce-only.

International Space Station (ISS) / Hubble Space Telescope (HST) / Chandra X-Ray Observatory Orbital Data via EMAIL

Privacy Policy:

Private list